Location: Kaikalui
(16.5250°N, 81.1500°E)
Time: 14:18:39
(UTC+00:00)

Cosmos 1844 Rocket - Pass Details

Date: 14 April 2026
Orbit: 825 x 842 km, 71.0° (Epoch: 11 May)

Event Time Altitude Azimuth Distance (km) Brightness Sun altitude
Rises 14:27:00 0° 326° (NW) 3,353 6.6 -23.2°
Reaches altitude 10° 14:29:43 10° 315° (NW) 2,419 5.9 -23.8°
Maximum altitude 14:34:25 29° 257° (WSW) 1,471 4.4 -24.9°
Drops below altitude 10° 14:39:07 10° 198° (SSW) 2,417 5.1 -26.0°
Enters shadow 14:40:54 - 190° (S) 3,020 5.5 -26.4°
